Theta_e
332 334 337 338 339 341 342 343 344 345 346 347 347 348 349 349 350 348 350 351 350 349 350 350 348 347 347 347 346 348 350 351 352 351 349 349 351 352 353 354 355 360 363 358 355 358 355 354 354 355 355 353 351 350 350 353 355 357 361 356 358 349 346 345 348 342 339 344 340 340 341 346 349 347 347 349 351 354 357 358 359 360 362 363 365
330 330 333 337 339 340 342 342 345 342 344 346 347 348 349 350 349 349 350 350 349 349 350 350 350 349 347 347 347 347 348 351 349 350 348 349 351 352 353 355 359 361 365 357 358 355 353 353 353 353 353 353 352 354 354 366 356 355 355 353 352 348 344 345 350 343 337 331 335 338 343 342 348 344 344 347 351 353 356 358 360 360 361 362 363
328 329 331 335 338 340 341 342 343 344 344 346 347 348 349 349 350 349 349 349 349 349 350 349 350 351 349 348 348 347 349 352 351 351 351 348 349 351 352 353 358 360 362 361 356 354 352 352 352 353 353 359 355 354 352 351 354 354 353 351 351 346 350 351 357 338 339 344 340 340 335 335 345 343 344 344 349 352 355 356 358 358 359 360 361
327 327 329 333 337 339 340 341 343 343 344 345 346 347 348 350 349 349 349 349 348 349 352 351 351 351 351 349 349 348 346 351 352 351 348 347 346 348 351 352 356 360 360 359 357 353 351 351 351 353 353 361 350 351 352 352 355 356 352 356 349 346 342 345 359 349 346 338 338 337 335 333 332 337 338 341 345 351 353 354 355 355 357 358 360
327 327 328 332 335 337 339 341 343 342 343 344 346 346 348 348 349 349 349 348 348 351 351 350 352 349 349 349 350 348 349 347 346 345 344 346 346 345 347 351 355 358 361 360 360 353 353 352 352 353 356 359 352 350 352 351 356 357 353 356 349 346 341 344 351 354 346 344 340 334 332 331 332 336 336 340 342 346 349 353 356 354 355 357 357
328 328 328 331 334 336 338 340 341 342 343 345 346 347 348 348 349 349 349 348 348 349 350 350 350 347 345 344 342 342 342 341 340 342 340 340 343 345 347 351 354 357 359 361 360 358 353 354 354 355 357 360 358 352 354 357 358 358 355 352 352 345 344 346 344 351 358 352 342 347 344 340 334 337 334 335 342 342 346 350 351 353 355 355 356
329 329 329 330 333 334 336 339 341 342 343 345 346 347 348 348 349 349 349 348 348 349 350 351 348 347 346 345 344 342 341 342 343 343 341 341 343 344 346 350 353 355 357 360 362 362 355 355 355 355 356 358 364 358 358 358 358 357 354 354 354 356 348 348 345 345 348 349 353 350 353 345 340 339 336 332 333 339 341 345 349 353 355 355 355
328 329 329 330 332 333 335 338 340 342 344 345 345 346 347 348 348 349 349 349 349 349 350 350 347 346 345 345 346 344 343 343 342 341 340 343 342 343 345 349 353 355 356 357 361 362 359 356 357 356 355 356 364 359 357 358 356 358 358 355 357 357 350 348 346 348 349 345 358 348 351 348 344 341 338 337 339 334 335 342 347 350 352 354 355
329 329 329 330 331 333 335 337 340 342 343 344 345 346 347 348 349 349 348 349 349 350 349 349 349 347 346 345 345 347 345 344 345 344 340 346 342 344 345 348 352 354 356 356 357 360 363 358 357 355 355 355 364 361 360 358 355 354 357 351 356 359 351 352 351 350 343 348 347 344 346 346 342 343 341 342 341 334 333 334 340 346 349 351 354
331 330 331 331 332 333 335 337 339 341 343 345 345 346 346 347 348 348 347 348 349 349 350 349 349 349 346 345 345 345 347 345 345 341 339 344 342 343 345 348 351 352 354 355 354 357 362 361 357 355 354 354 363 361 359 354 353 352 353 351 353 359 358 359 350 350 347 349 347 348 347 347 344 341 338 336 335 336 336 333 336 340 340 346 353
330 330 331 332 333 334 335 335 338 340 342 343 344 344 345 346 347 347 348 348 349 349 350 348 348 348 346 346 345 344 344 343 342 340 338 342 342 343 345 348 351 352 353 354 354 355 358 361 358 355 355 359 362 361 358 354 353 352 351 352 356 353 355 358 360 356 354 353 347 349 350 345 345 341 344 339 337 336 336 335 337 340 340 343 349
329 330 330 331 332 333 334 335 336 338 340 341 342 343 344 345 346 346 347 348 349 349 349 349 348 348 348 347 345 345 344 343 342 341 338 340 342 342 346 348 350 353 353 354 353 355 358 359 361 358 358 357 358 360 359 356 354 354 353 353 353 353 354 360 355 356 354 352 352 349 349 347 345 344 343 344 339 338 337 337 339 343 343 346 350
329 330 331 331 331 331 332 334 335 337 338 340 341 342 343 344 345 345 345 347 348 348 349 349 348 348 348 347 346 347 345 345 343 342 340 340 341 342 344 346 348 350 352 352 353 355 357 357 357 357 356 358 359 358 358 356 354 354 353 352 353 352 353 356 355 354 354 352 351 350 349 347 346 347 345 343 341 339 338 340 340 343 342 343 347
329 330 331 331 331 332 333 334 335 337 338 339 340 342 343 343 344 344 345 346 346 345 344 347 349 349 349 348 347 348 346 345 344 343 341 341 342 343 344 345 347 349 351 351 354 355 357 357 358 358 358 358 359 357 356 356 355 353 354 354 352 354 353 354 354 355 355 354 352 351 349 348 348 348 345 342 340 339 340 339 343 343 344 343 346
329 330 331 331 332 333 333 334 335 337 338 339 340 341 342 343 343 345 343 344 346 345 344 343 344 348 349 349 348 347 346 346 346 345 343 341 343 343 344 346 347 349 351 353 355 355 356 357 357 357 357 357 358 357 356 356 358 357 356 354 355 352 351 353 352 352 351 353 353 352 352 350 349 349 343 345 342 341 342 344 344 341 341 343 342
329 329 330 332 333 333 334 334 335 337 339 339 340 341 342 343 344 344 344 345 346 347 345 343 344 346 348 348 348 348 349 347 347 349 346 343 343 344 344 346 348 349 351 353 353 355 355 356 358 358 357 356 356 357 356 356 354 354 354 356 354 355 353 352 351 351 352 353 353 353 351 350 350 349 345 344 344 343 345 346 346 344 339 337 340
328 329 330 331 332 333 334 335 335 337 338 339 340 342 343 344 344 343 344 346 346 347 345 344 344 344 347 348 348 348 348 347 346 348 346 346 345 344 344 345 347 349 349 352 352 354 355 356 356 357 357 356 355 356 355 355 354 354 354 353 353 354 357 354 353 352 353 351 351 351 351 351 351 351 348 345 346 347 345 347 347 344 343 340 339
329 330 331 332 332 333 334 335 336 337 339 340 341 342 344 345 345 343 343 343 346 347 347 345 344 344 347 348 348 349 349 349 348 348 349 347 346 344 344 344 345 348 350 351 352 352 353 358 355 356 356 356 355 355 355 354 354 352 352 352 352 354 353 354 354 353 352 351 352 352 351 350 352 351 349 348 347 348 345 346 347 347 347 341 342
328 329 329 330 331 333 333 334 336 338 340 340 342 343 345 346 346 344 344 345 346 347 348 347 345 346 348 349 349 349 350 350 350 351 351 348 347 345 343 344 345 347 350 350 351 351 352 354 355 354 355 356 355 354 355 354 353 352 351 351 351 352 351 351 351 352 352 352 352 350 351 350 351 349 350 348 348 347 345 345 347 348 347 347 344
328 329 329 330 331 332 333 334 335 337 339 340 342 344 345 346 347 345 347 347 347 347 348 347 347 348 348 349 350 350 350 350 350 351 350 350 349 348 346 343 344 347 348 348 349 350 351 352 353 353 353 354 354 354 354 354 353 352 351 350 351 351 350 350 350 351 351 352 352 351 352 352 352 350 350 350 351 349 347 345 346 348 348 347 349
328 329 329 330 331 331 333 333 335 338 341 341 342 343 344 346 346 347 346 347 347 347 348 347 349 349 349 347 348 349 349 350 350 351 350 351 351 351 349 348 347 345 347 346 347 349 350 352 352 354 353 353 353 354 354 354 353 353 353 352 352 352 351 350 351 350 351 350 351 350 350 351 351 350 351 351 350 350 349 347 348 348 346 347 347
328 329 329 330 331 331 332 334 336 338 340 340 341 342 344 345 346 347 346 346 347 348 348 348 349 349 348 348 348 350 350 350 350 350 350 350 351 351 351 351 348 347 346 346 347 347 349 350 351 352 353 353 353 353 353 353 353 352 352 351 351 352 351 351 351 350 351 350 350 350 349 349 351 350 350 349 351 351 349 347 348 345 345 346 348
328 329 330 332 332 333 334 335 336 337 339 340 341 341 343 345 346 346 345 345 348 349 349 349 349 349 349 349 350 350 350 350 350 350 350 350 351 351 352 350 349 349 348 346 346 347 348 349 350 351 352 353 353 352 353 353 352 352 351 352 353 352 351 349 349 349 349 351 349 350 350 350 350 350 350 351 352 351 350 349 349 348 347 347 347
331 331 334 334 334 335 335 335 336 337 338 339 340 342 344 346 347 345 345 346 347 348 349 349 349 349 350 350 349 350 351 350 350 350 350 351 351 351 352 350 349 349 347 347 347 347 348 349 349 350 351 351 352 352 352 352 352 351 351 351 351 352 351 350 350 349 350 349 349 349 349 350 351 350 350 351 353 352 352 352 350 351 351 350 350
331 332 334 334 334 334 334 335 336 337 338 340 341 343 345 346 345 345 344 344 346 346 348 349 349 349 350 349 349 349 350 351 351 351 351 352 352 352 352 351 350 348 348 347 347 347 347 348 348 349 349 350 350 351 351 350 350 351 351 350 350 351 351 351 351 350 352 350 349 348 349 349 350 348 350 349 351 352 351 351 351 353 353 353 352
330 332 333 333 334 334 334 335 336 338 339 340 343 345 345 345 345 345 343 345 346 347 347 348 349 349 348 349 349 350 350 350 351 352 352 352 352 352 351 352 351 349 349 348 346 345 345 346 348 348 349 349 349 350 350 349 349 350 350 350 350 350 350 350 350 350 350 351 350 349 349 350 350 348 348 350 351 351 351 350 351 352 353 354 353
331 332 332 333 333 333 334 335 336 338 339 341 343 345 345 344 343 343 343 346 347 346 347 348 349 349 348 349 350 351 352 352 353 352 353 353 353 352 351 350 351 350 348 347 347 346 346 344 344 346 346 347 347 347 347 347 347 347 348 348 348 349 349 349 350 350 349 350 350 350 350 350 349 350 349 349 350 352 351 350 352 351 353 353 353
330 332 332 332 333 333 334 335 336 337 339 341 343 344 344 343 342 343 344 346 347 346 347 348 348 348 348 349 351 353 352 349 348 350 353 353 353 351 352 351 352 349 348 348 347 346 345 345 343 342 343 345 344 344 345 345 346 345 346 346 347 347 347 348 349 350 350 350 350 350 350 350 350 350 350 351 351 350 352 350 351 352 352 352 351
331 331 331 332 333 333 334 335 336 338 338 340 341 342 343 343 342 343 344 345 348 348 347 347 348 348 349 351 352 354 352 349 350 351 352 351 352 350 351 350 350 349 349 348 348 347 346 345 345 344 343 343 343 342 343 344 344 345 346 345 345 346 346 346 347 348 348 349 349 350 350 350 353 355 357 356 355 354 351 349 351 352 351 351 351
330 331 331 332 333 334 334 335 336 337 338 339 340 341 343 343 343 344 345 348 349 348 347 347 347 347 347 348 349 351 352 352 351 349 348 347 347 347 348 347 348 349 349 349 348 349 348 346 346 346 346 346 346 345 348 350 351 349 347 344 346 346 346 346 346 346 346 348 348 349 351 354 356 358 359 361 361 361 359 354 351 351 351 350 350
330 330 331 332 333 334 334 335 335 337 338 339 340 341 343 343 344 345 346 347 348 346 347 346 345 345 346 347 347 348 348 348 347 345 344 345 345 345 346 346 346 346 346 347 350 348 347 349 348 347 346 346 345 346 351 338 337 342 349 348 346 344 344 343 342 342 343 346 347 349 349 351 355 357 359 361 362 364 365 362 360 357 354 351 349
330 330 331 332 333 333 334 334 335 336 337 339 339 341 342 341 343 344 345 347 346 345 345 344 344 345 345 346 347 346 346 345 345 344 343 344 345 344 344 345 346 346 347 347 346 346 346 346 346 346 346 346 346 350 336 336 338 337 345 348 345 344 344 341 341 341 342 343 345 346 347 349 349 350 352 354 358 362 365 366 364 361 359 356 353
330 331 332 332 333 334 334 335 335 336 337 338 340 341 341 342 342 345 347 346 345 344 343 343 343 344 344 344 343 342 341 341 341 340 341 342 344 344 344 343 343 345 346 345 345 346 347 347 347 347 346 347 347 347 334 335 334 333 337 346 346 345 343 342 342 342 343 343 345 345 346 347 348 352 353 354 354 355 359 360 359 357 357 355 343
331 332 333 333 334 335 335 336 336 337 339 340 343 343 344 346 347 347 346 345 343 342 343 343 342 343 343 343 342 341 340 340 340 340 341 342 342 342 342 342 343 344 344 344 344 346 348 349 349 348 348 349 347 349 337 331 329 331 335 342 344 344 344 344 344 344 344 344 344 344 344 344 347 349 350 352 353 355 355 356 359 360 359 359 359
332 332 334 334 336 336 335 336 338 339 340 341 342 346 346 344 344 343 343 342 341 341 342 343 343 341 341 342 342 341 340 339 340 341 341 341 341 341 341 342 342 342 343 344 344 344 344 346 348 349 349 348 350 342 332 330 328 329 333 342 341 342 342 342 343 344 344 344 344 345 345 345 346 347 348 350 351 352 355 355 354 355 354 353 354
333 334 334 336 337 337 338 338 342 344 342 342 344 345 343 341 340 340 342 342 340 339 339 340 340 341 340 341 342 342 341 340 339 340 340 341 342 341 341 342 344 344 344 343 343 342 342 343 344 344 344 344 347 335 331 329 328 328 334 342 340 339 339 340 340 341 342 344 345 346 347 347 347 348 347 341 345 352 352 351 350 349 348 349 349
335 336 336 338 340 340 340 344 343 343 344 344 345 344 341 339 337 338 340 340 340 338 338 340 340 339 339 339 340 340 340 340 339 337 336 336 337 339 340 342 342 342 341 341 341 341 342 342 342 342 341 341 343 339 329 327 328 329 334 341 341 340 340 340 340 340 342 342 343 345 346 346 347 348 346 334 334 345 348 346 346 345 345 346 347
337 338 338 340 341 342 345 343 342 342 343 345 345 343 340 338 336 336 337 337 338 337 338 338 339 339 339 339 339 339 339 340 339 336 336 336 337 338 339 341 340 339 338 339 340 340 340 340 340 340 341 342 344 344 331 323 325 327 336 341 341 341 342 342 343 344 344 344 344 347 348 346 346 346 339 332 331 342 344 342 343 344 344 344 344
338 339 339 340 341 343 344 342 341 340 340 343 343 343 341 339 338 336 336 336 337 336 337 337 337 338 339 339 339 339 338 338 339 339 339 338 338 339 339 340 339 338 338 338 339 338 338 338 339 340 343 345 345 343 330 323 324 324 332 342 342 341 340 341 341 342 343 345 346 348 348 349 349 346 331 328 328 339 346 344 344 343 343 343 344
339 341 341 341 344 343 341 340 340 338 340 342 343 342 343 341 342 341 340 339 339 339 339 339 339 338 338 338 338 338 338 338 338 340 340 340 340 339 338 338 338 339 339 338 339 339 338 340 341 342 342 344 344 345 343 323 319 320 325 340 341 339 338 339 340 340 341 343 345 345 346 339 331 327 322 319 319 321 340 345 343 341 341 341 346
340 341 344 341 341 341 341 341 339 337 338 340 343 344 343 344 344 344 344 344 343 340 339 338 338 337 337 336 337 337 338 338 339 340 340 340 340 339 338 337 338 338 338 338 339 340 340 341 342 343 342 342 343 344 343 324 318 319 322 331 341 341 341 341 341 341 342 342 343 345 346 339 318 314 313 312 311 313 322 335 341 342 343 344 345
342 343 342 340 338 337 336 336 336 337 338 339 342 344 343 344 342 342 345 345 344 343 341 340 339 338 338 338 338 338 339 340 341 340 338 338 338 338 338 338 338 339 339 339 339 338 336 336 337 338 339 339 341 343 344 330 321 319 319 320 338 341 336 337 337 338 339 340 340 339 339 330 317 314 312 310 310 312 315 327 332 324 325 326 335
340 339 341 339 336 336 336 336 337 337 338 339 343 344 344 344 341 343 343 343 344 343 342 340 340 338 339 339 339 340 342 342 341 340 338 337 336 337 338 337 336 335 333 332 331 330 332 333 334 336 335 337 338 339 341 334 318 313 314 317 318 326 320 334 333 332 332 332 333 331 331 326 314 308 306 307 309 312 320 325 316 314 316 318 325
340 340 340 340 336 337 338 338 338 338 338 341 345 345 344 341 341 342 342 343 342 342 342 341 341 340 341 341 342 344 343 341 342 338 336 334 333 331 333 333 331 332 330 330 329 328 329 330 331 331 332 335 338 337 338 334 323 314 311 312 314 315 317 327 329 329 329 329 327 326 324 310 305 303 304 307 310 316 321 311 310 312 314 319 325
339 339 340 339 338 338 339 338 338 338 338 340 344 345 346 342 340 342 342 341 340 341 342 342 342 341 341 341 342 342 340 340 342 340 339 336 334 333 333 330 333 331 330 330 329 332 330 328 327 328 327 332 336 335 333 333 330 323 316 315 317 319 317 316 327 328 328 326 320 310 307 307 310 310 312 316 319 322 316 314 313 315 324 326 326
339 339 339 338 339 339 339 338 337 338 339 342 342 344 344 341 341 343 340 340 341 341 341 339 339 339 339 340 339 338 338 339 339 340 340 337 336 335 334 331 331 330 330 329 329 331 331 329 327 324 325 328 333 335 333 332 334 333 324 317 316 321 324 322 323 324 321 317 314 312 313 314 318 320 325 326 326 325 321 322 322 325 326 326 326
338 338 339 338 339 339 338 339 338 338 339 341 342 342 343 341 342 340 339 340 341 342 342 339 339 339 338 338 338 336 333 332 333 333 333 336 337 336 335 335 330 328 328 328 329 332 331 329 328 326 324 326 328 331 332 333 333 332 330 329 328 327 324 324 326 325 323 323 323 324 321 315 315 317 322 322 321 323 323 323 322 323 323 325 325
339 339 340 340 340 339 339 338 338 337 338 341 341 342 341 342 342 340 340 340 342 342 340 337 336 338 337 335 336 342 333 328 326 327 328 328 329 332 333 332 330 328 328 327 328 330 330 329 327 324 322 322 325 326 327 324 325 325 324 324 326 327 325 324 324 324 323 323 323 322 322 324 324 323 322 321 321 321 322 321 321 321 321 322 324
338 339 340 340 339 339 338 338 338 336 338 340 340 341 341 341 341 340 340 340 341 345 338 334 333 333 337 344 338 341 329 326 322 320 315 315 318 322 324 322 319 319 321 322 324 324 327 324 322 322 322 322 324 323 320 311 313 308 313 317 322 323 323 324 323 315 320 322 322 321 321 321 320 319 319 318 319 319 320 320 320 320 320 320 320
339 340 340 340 340 338 337 337 336 335 337 338 338 339 341 341 341 340 340 340 342 338 333 331 331 333 335 335 333 330 327 325 321 320 318 318 314 305 307 318 321 321 312 305 305 316 311 314 318 320 321 322 322 321 308 301 298 298 298 299 302 300 302 315 310 311 319 319 318 318 319 318 318 318 318 317 317 317 318 319 319 318 319 318 318
338 338 338 338 337 337 336 336 335 334 336 337 337 337 338 339 340 340 340 339 338 337 333 331 333 334 338 336 331 327 326 323 322 321 320 320 318 316 300 300 309 313 306 296 295 297 300 303 311 316 317 313 312 306 300 297 297 297 296 295 296 300 299 297 301 316 319 317 317 317 317 317 317 317 317 317 317 316 317 317 318 318 317 317 317
Wind_Speed
12 12 13 14 14 12 11 10 10 10 9 10 10 10 10 10 9 10 8 8 8 7 7 7 7 6 5 6 6 5 5 5 4 4 4 4 4 4 4 4 5 5 5 5 5 3 3 3 4 4 4 5 5 5 4 4 2 1 0 1 1 3 2 2 3 2 3 2 4 6 6 6 6 6 7 6 6 4 4 4 4 4 5 6 5
5 7 10 11 11 12 10 9 9 11 10 11 12 12 10 10 11 9 7 8 9 9 8 8 7 7 6 6 5 5 5 5 5 4 4 4 4 4 4 4 4 5 4 5 4 4 3 4 5 5 5 5 3 3 2 2 2 2 1 1 1 1 2 2 3 1 3 1 1 3 4 4 5 6 6 6 6 5 4 4 4 4 5 4 5
7 9 10 11 13 13 11 10 11 14 13 14 12 11 10 10 9 9 8 9 9 9 8 8 7 6 7 5 6 4 3 4 4 4 4 5 4 5 4 4 4 4 4 4 4 4 4 4 5 4 5 4 4 3 3 3 2 1 0 1 2 0 2 1 2 0 1 1 0 3 2 2 3 4 3 6 6 5 4 4 3 4 5 4 4
9 10 11 11 12 12 11 11 11 11 10 9 10 12 10 9 9 10 9 9 8 9 8 7 7 5 4 5 6 5 4 3 4 3 3 4 5 4 4 4 4 4 4 4 3 4 5 5 4 4 5 4 5 4 3 3 2 1 1 2 1 1 1 1 2 1 3 3 1 1 1 1 1 2 2 3 4 5 4 3 3 3 3 3 3
11 10 10 11 12 13 14 13 11 11 11 12 12 12 10 13 12 11 10 10 9 9 9 6 6 6 5 4 4 3 2 4 4 4 4 4 3 4 5 5 5 5 4 4 4 5 5 4 4 4 4 3 3 4 4 4 3 2 2 2 4 2 3 2 1 2 1 1 4 2 1 1 2 2 0 2 4 3 4 3 3 3 2 3 4
13 13 13 14 14 12 11 11 12 12 12 13 13 13 12 11 11 10 8 8 8 9 9 8 7 8 7 7 6 5 6 5 6 7 5 5 6 4 4 5 6 5 5 5 5 4 5 5 5 4 4 3 3 3 3 2 3 3 3 4 4 3 1 2 2 2 1 2 3 1 2 0 2 1 1 2 2 2 2 2 2 2 2 3 4
10 10 10 11 12 12 13 13 14 14 14 12 11 11 12 11 11 11 10 9 8 8 9 8 7 7 9 9 8 8 8 6 4 4 5 5 4 5 5 5 6 6 5 5 5 4 4 4 4 4 4 3 3 3 3 3 2 2 1 3 3 3 3 2 4 2 2 0 0 1 1 0 4 5 3 2 2 1 2 1 1 1 1 3 4
11 11 11 12 13 15 16 16 14 15 13 11 11 11 12 12 12 12 9 9 8 8 9 9 9 8 8 8 7 7 7 7 6 5 5 4 5 6 5 5 6 6 6 6 5 5 4 5 4 4 4 4 4 4 4 2 2 2 1 2 1 3 4 3 4 2 2 1 1 1 2 2 0 1 4 4 3 2 3 0 1 1 1 2 3
12 11 12 13 13 14 15 15 15 13 12 13 13 13 12 11 11 10 10 9 8 10 10 10 9 9 8 7 7 6 6 5 5 4 5 5 6 4 5 5 5 5 6 6 6 5 5 5 5 4 4 4 4 3 3 2 3 3 2 2 2 2 2 2 3 4 3 2 1 0 1 2 2 1 1 2 2 3 3 2 2 1 1 2 3
10 12 13 14 14 14 15 15 13 13 13 12 12 11 11 10 10 11 11 10 9 10 10 10 10 8 8 8 9 7 6 5 5 6 5 5 6 6 5 5 5 5 6 6 6 6 6 5 5 5 5 4 3 4 3 3 3 3 4 4 3 3 1 2 2 2 3 2 2 2 1 1 2 2 1 2 2 1 3 3 3 3 2 1 2
9 10 11 12 13 14 11 12 13 12 10 11 11 11 11 11 11 12 13 10 10 11 11 12 10 9 9 9 10 9 8 7 6 5 5 5 6 6 6 6 5 6 5 5 6 6 6 5 4 5 4 3 3 4 4 4 3 3 2 2 2 3 2 2 2 1 2 2 2 3 3 2 2 2 3 3 2 2 1 2 1 3 1 1 2
8 9 9 9 7 7 7 9 10 11 11 11 11 10 11 11 11 13 11 11 10 11 11 11 10 10 9 10 10 9 8 7 8 8 7 8 7 7 6 5 5 5 5 5 5 5 5 5 4 4 4 4 4 4 4 4 3 2 2 3 3 3 2 2 2 3 3 2 3 2 3 2 3 4 3 3 4 4 4 3 2 1 1 1 2
8 8 9 8 9 10 10 10 9 9 11 13 13 12 12 11 13 13 13 13 11 10 11 10 9 10 10 10 9 8 8 8 8 7 7 7 7 7 6 6 5 5 5 6 6 6 5 5 5 5 5 5 5 4 4 4 4 3 3 3 3 4 4 3 3 4 4 4 4 3 2 2 4 3 2 2 1 2 4 2 1 0 1 2 2
9 9 9 10 10 10 11 11 12 11 12 13 13 11 9 10 11 13 7 10 11 10 11 8 6 9 9 9 9 8 8 8 8 8 7 7 7 8 8 7 7 7 7 7 7 6 6 6 6 6 5 5 5 5 5 4 4 4 4 4 4 4 2 4 4 4 3 4 2 3 3 3 3 3 2 3 3 4 3 4 4 1 0 2 2
8 9 10 10 11 11 11 11 12 12 13 13 12 12 11 11 9 9 13 10 12 13 13 9 6 8 7 8 8 8 8 8 7 7 7 7 6 7 7 7 6 7 8 8 7 7 7 6 7 6 6 6 5 5 4 4 4 4 4 4 3 3 3 3 3 3 4 4 3 4 3 2 3 3 2 4 4 5 5 5 6 4 0 2 3
8 9 9 10 11 11 10 11 12 12 13 12 13 12 13 9 11 15 14 13 13 12 12 14 14 8 7 8 9 8 7 7 6 6 6 7 8 8 8 7 8 7 7 7 6 6 6 7 6 7 7 6 6 6 6 5 5 4 4 4 5 2 4 5 4 3 4 4 4 3 2 4 3 3 4 3 4 4 3 4 5 5 5 3 3
9 10 10 10 9 10 11 12 11 12 12 13 13 12 12 11 14 14 13 11 13 14 13 12 10 10 8 7 7 7 8 8 7 8 8 7 7 7 7 8 7 7 6 6 6 7 7 6 7 6 7 7 6 7 6 6 5 5 5 5 5 4 4 5 4 4 4 3 3 3 4 4 4 3 3 4 4 4 4 4 5 7 6 4 3
11 11 11 12 12 12 11 11 13 14 14 12 11 11 13 14 17 18 18 15 12 10 10 10 10 8 8 8 7 7 7 8 8 7 7 7 7 6 6 6 7 7 6 6 7 7 7 7 7 7 6 6 7 6 7 6 6 5 6 5 5 4 5 4 4 4 5 3 3 3 3 4 3 3 4 4 4 4 4 5 5 5 5 7 5
6 8 8 8 9 10 11 12 12 10 10 11 12 12 12 12 16 18 19 19 16 12 10 9 9 8 8 11 12 10 8 7 7 7 6 7 7 7 6 7 6 6 7 7 7 6 6 7 8 7 6 7 6 6 6 6 6 6 5 5 5 5 5 6 5 4 5 4 4 5 4 4 4 3 3 2 3 3 5 5 4 3 5 6 6
8 8 9 10 10 11 11 10 10 11 11 12 12 11 14 14 15 14 11 11 11 11 10 9 10 8 8 9 10 10 10 9 8 7 6 7 7 7 7 6 7 6 6 8 7 7 7 7 7 7 7 6 6 6 6 6 6 6 5 5 5 6 6 7 6 5 4 5 5 6 6 5 4 3 4 3 3 3 3 4 5 5 5 4 4
9 9 9 9 9 8 7 8 8 7 8 9 11 13 13 11 12 12 12 10 10 12 11 11 9 9 9 10 9 9 10 8 8 7 7 7 6 7 7 6 5 6 6 6 7 8 8 7 7 7 8 7 8 7 6 6 6 6 6 6 6 5 7 6 6 7 5 5 6 7 7 6 4 4 4 3 3 4 3 4 3 4 5 4 6
7 8 7 6 4 4 4 4 4 7 8 10 10 8 10 12 12 13 14 15 15 11 11 11 11 10 10 10 8 7 8 8 8 8 8 7 7 7 7 6 7 6 6 7 7 7 7 7 7 8 8 8 8 8 7 5 6 6 6 4 5 6 6 7 6 7 7 5 6 7 8 7 5 5 5 5 4 4 4 4 4 5 5 6 6
5 4 4 3 3 4 6 7 8 9 9 10 9 10 11 10 9 12 15 14 10 9 10 10 10 10 10 9 7 7 7 8 9 8 9 9 8 8 7 8 7 6 6 6 6 7 8 8 8 8 8 7 8 8 7 6 6 7 7 6 6 6 7 7 7 8 8 6 6 7 8 7 4 5 6 6 5 5 5 5 6 5 6 6 5
2 2 2 3 4 5 6 6 7 7 9 10 9 6 6 6 7 8 9 5 3 4 5 7 7 7 8 8 7 6 7 8 8 8 9 9 8 8 7 8 8 7 7 6 7 7 7 8 8 8 8 7 8 7 7 6 8 7 7 8 7 7 7 7 7 7 7 7 8 8 7 7 6 7 7 6 5 5 5 5 6 5 6 7 6
3 3 4 5 5 5 5 6 6 6 6 5 6 7 8 8 9 8 7 10 9 5 6 5 5 6 6 6 7 7 8 8 9 8 9 9 9 8 8 9 8 8 8 7 7 7 8 8 7 8 8 8 8 8 8 7 6 6 7 7 7 7 7 7 8 9 8 8 8 8 9 7 6 7 7 6 6 7 6 5 6 6 6 5 4
4 4 4 5 4 4 5 5 5 5 6 6 7 8 9 9 10 10 11 7 7 7 5 6 4 6 6 7 7 7 9 9 9 9 9 8 8 8 8 7 8 8 8 7 8 6 7 8 7 8 7 8 8 8 8 8 7 6 7 7 7 8 7 7 7 8 8 8 7 9 9 8 7 8 8 8 6 8 6 6 7 6 6 4 5
3 3 4 5 5 5 5 5 4 5 6 7 8 9 10 10 11 11 10 7 7 8 8 8 6 7 7 7 8 8 8 6 5 7 6 7 7 8 8 8 7 8 8 8 7 7 7 7 7 7 7 7 8 7 7 7 8 7 8 7 7 7 8 7 7 8 8 8 9 8 8 9 9 9 9 9 9 8 6 8 8 8 7 5 5
3 3 4 4 5 5 5 6 6 6 7 7 7 9 11 12 13 11 8 6 6 8 9 8 7 7 7 7 6 5 2 0 6 9 8 7 7 5 4 3 4 5 6 7 7 7 7 6 7 7 7 6 7 7 6 6 6 7 6 7 8 7 8 8 8 8 8 9 9 10 10 9 10 9 10 10 9 8 6 7 7 6 6 7 6
3 3 3 5 6 5 6 6 5 6 8 8 8 7 7 7 8 6 7 6 6 5 5 6 6 6 6 5 4 4 6 9 8 7 6 3 4 5 6 5 5 5 5 5 6 6 6 6 6 6 6 6 6 6 5 6 6 7 7 7 7 8 8 8 8 8 8 9 8 8 8 9 9 13 15 13 11 10 8 8 9 7 8 8 7
5 4 4 3 3 5 5 6 6 7 7 8 7 7 7 8 6 3 3 3 5 4 5 4 4 4 3 2 3 3 3 5 3 3 6 6 5 4 6 6 6 4 2 5 6 5 5 6 6 5 5 5 5 4 5 8 5 4 3 2 3 4 5 6 7 8 9 8 9 9 8 14 16 16 17 18 17 16 15 11 10 9 9 8 7
3 3 3 2 3 4 5 5 6 6 6 7 7 6 6 5 5 4 4 4 4 4 4 5 5 5 6 5 4 4 2 1 4 6 5 3 3 2 1 2 2 3 3 2 4 6 6 4 5 6 6 5 4 4 7 5 4 3 3 3 2 3 2 2 2 5 7 8 8 8 8 10 13 14 14 18 19 17 17 18 17 14 12 11 8
5 3 3 3 4 5 6 6 6 6 6 6 7 7 7 6 5 6 6 6 6 7 7 6 6 5 5 5 4 1 1 2 3 4 5 5 5 5 5 5 4 4 3 3 5 6 7 6 5 3 4 4 4 8 10 8 6 6 4 2 4 4 5 6 7 7 7 8 9 9 8 7 8 10 10 10 13 17 17 17 19 16 14 17 16
5 5 5 5 6 6 6 6 5 5 6 6 7 7 6 6 7 7 7 7 6 6 5 4 4 3 3 2 1 2 2 2 3 4 4 3 2 2 4 5 5 4 4 5 6 6 7 6 5 5 5 5 6 7 8 3 6 7 8 7 5 6 7 8 8 8 10 9 8 8 7 7 7 12 11 10 10 10 13 17 17 17 16 17 16
3 4 5 5 4 4 5 6 6 5 5 6 6 7 7 8 9 8 8 7 7 6 6 5 4 4 3 2 1 2 2 2 3 4 4 3 2 3 4 4 4 4 5 5 6 6 5 5 4 5 5 6 6 6 2 9 9 11 13 11 8 10 10 10 11 11 9 10 10 9 9 9 9 9 9 9 9 9 10 7 6 6 8 11 13
5 5 5 6 5 4 5 5 6 7 7 8 7 7 7 7 7 7 6 7 7 7 6 5 4 3 2 2 3 3 2 1 1 2 3 4 3 3 3 2 1 2 3 4 4 5 5 4 4 4 3 2 2 5 13 12 11 14 16 13 10 9 8 8 8 9 10 11 11 10 10 10 9 8 8 9 9 9 7 6 8 7 4 5 6
7 7 6 7 7 7 7 6 5 6 6 7 8 8 7 7 7 7 6 6 5 5 4 3 3 3 3 3 4 3 3 3 2 3 3 3 5 5 3 1 1 2 3 3 4 4 5 5 5 4 4 5 3 7 11 8 9 11 14 7 5 6 7 7 7 8 9 9 9 9 9 9 9 8 9 12 12 7 6 6 6 6 6 6 8
4 5 6 5 5 6 5 5 6 7 8 7 7 6 6 8 7 6 6 6 6 5 4 3 4 4 3 5 5 5 4 4 4 3 2 3 1 1 2 3 4 6 6 6 6 6 5 4 4 4 4 4 4 3 8 11 12 14 9 4 4 5 5 7 8 7 7 8 8 7 7 7 7 8 9 10 11 7 1 2 7 10 9 9 11
6 6 6 5 5 5 5 7 8 9 8 7 6 5 7 8 8 8 7 6 5 5 5 6 6 7 8 7 5 4 4 3 2 3 5 5 5 4 4 5 5 5 5 5 5 5 4 4 4 4 4 4 4 4 7 13 14 14 10 6 5 5 6 7 8 7 6 7 8 13 11 8 8 8 9 10 10 5 8 10 12 10 9 10 10
6 8 8 6 6 6 7 7 9 10 8 8 7 5 5 7 6 5 5 6 6 5 6 9 8 7 6 4 2 1 1 1 3 5 5 4 4 4 2 3 4 4 4 3 3 4 4 4 5 5 6 6 5 5 7 12 15 14 10 6 5 5 6 7 6 7 6 6 7 7 11 10 9 9 11 11 10 6 8 11 12 11 11 12 10
5 4 5 7 7 7 6 7 8 9 9 9 7 5 4 4 5 6 6 6 6 6 6 9 5 3 3 3 2 2 2 3 5 5 5 5 4 3 2 2 3 4 5 5 4 4 5 5 5 5 4 5 5 5 4 9 13 14 14 8 5 5 7 7 6 6 7 7 6 7 7 7 11 11 10 9 8 7 8 8 9 10 11 15 7
7 7 6 6 6 7 8 7 6 8 7 6 6 5 4 4 5 5 5 5 5 5 4 8 7 5 6 3 2 2 3 4 5 4 2 3 2 3 2 3 3 2 3 3 4 4 4 4 4 4 4 5 5 6 6 10 10 12 13 11 5 6 6 6 6 6 6 6 6 6 6 4 8 8 6 6 7 7 6 6 7 9 10 10 6
4 7 8 7 6 6 6 7 6 7 7 7 7 6 5 4 4 5 6 5 5 4 4 4 6 6 3 4 1 2 4 4 3 2 2 3 2 2 2 2 2 2 3 3 3 3 3 3 2 1 2 2 2 1 2 6 8 7 6 7 3 1 3 3 4 4 5 5 5 5 5 7 10 10 10 8 8 6 6 4 7 10 13 13 10
8 5 5 7 7 7 7 7 7 8 8 8 9 9 8 7 7 7 4 5 6 6 5 5 4 4 4 3 4 5 4 3 3 3 3 3 2 1 2 1 2 1 1 1 2 1 2 4 4 4 4 4 5 4 1 4 4 5 6 5 5 3 2 2 2 3 4 6 6 6 7 11 12 13 11 10 9 9 7 6 8 10 11 12 9
7 9 9 7 8 7 7 7 7 8 8 8 9 9 8 8 8 6 6 7 8 9 9 7 5 6 6 7 6 5 5 5 6 6 5 5 4 2 2 1 1 1 1 1 1 1 1 1 2 3 2 2 3 1 4 6 4 5 4 3 3 3 3 3 2 2 3 4 5 6 7 10 10 11 11 10 10 8 7 10 9 8 8 7 5
11 9 7 8 10 10 8 7 6 7 7 6 6 9 8 8 6 7 8 8 9 9 10 11 11 10 8 7 5 4 4 3 3 5 5 4 4 3 3 1 1 1 0 2 3 2 3 3 3 3 3 3 3 1 2 4 6 6 4 3 2 1 3 3 3 3 4 4 5 7 8 8 9 10 10 9 6 5 6 7 8 8 7 4 4
7 7 7 8 8 9 8 8 6 5 5 4 4 5 6 4 7 7 7 8 9 9 8 7 7 6 5 4 4 3 2 2 2 2 3 3 4 4 4 3 3 2 1 0 3 3 3 3 4 3 3 3 4 4 2 2 3 4 2 2 2 4 4 2 2 3 4 5 6 7 6 6 6 6 6 5 4 5 7 8 8 8 4 5 5
10 8 8 8 9 8 8 7 6 4 4 4 4 4 5 7 9 8 9 8 9 8 7 6 6 5 4 4 5 3 2 0 1 0 1 1 2 2 2 2 2 2 2 2 2 2 3 2 3 2 2 2 3 3 4 4 5 4 4 4 4 3 1 2 5 6 5 4 5 5 5 6 6 6 5 5 5 6 6 6 5 5 4 4 5
8 8 8 8 9 9 8 7 6 5 4 4 4 4 4 5 5 6 6 7 7 7 7 6 6 4 4 4 4 5 4 1 1 2 1 1 2 1 3 4 4 4 4 4 3 3 3 2 3 1 1 2 3 2 3 4 5 5 5 5 5 5 5 4 5 5 5 5 5 4 4 3 4 4 4 5 5 5 5 5 5 5 5 5 6
9 8 9 9 8 8 8 7 5 4 4 4 4 3 3 4 4 4 5 5 5 5 6 6 5 4 3 2 2 3 3 3 1 2 2 2 2 2 1 1 3 3 3 3 3 3 3 3 2 1 1 3 1 1 2 2 3 3 2 3 4 4 4 5 5 5 5 3 3 3 3 4 6 6 6 6 6 7 6 5 5 6 6 6 6
8 8 8 7 5 6 6 6 5 3 3 3 3 2 2 2 2 4 4 5 4 5 6 5 5 5 3 3 2 2 3 2 2 2 1 1 5 6 4 3 2 5 8 7 4 1 2 3 4 4 3 3 3 2 2 4 3 4 3 2 4 6 5 5 7 7 3 3 2 3 3 4 6 6 6 6 6 6 6 7 6 7 6 6 6
9 9 6 6 5 6 6 5 3 2 2 2 2 1 1 1 1 1 3 4 5 5 4 4 4 4 4 4 4 3 3 3 3 3 2 1 1 2 4 6 5 6 5 4 3 2 2 1 1 3 4 5 7 7 8 8 8 7 5 5 5 4 5 5 7 4 2 2 3 3 3 4 3 4 5 5 5 6 6 6 5 5 6 6 6
Wind_Direction
206 198 195 196 196 193 189 183 182 181 181 181 182 184 184 182 176 185 180 171 170 172 176 172 170 168 177 188 198 195 197 194 203 206 205 212 217 212 210 216 221 215 195 195 197 199 205 218 187 172 167 171 170 195 182 184 190 178 268 347 353 360 321 28 25 60 34 1 6 30 41 29 52 54 51 49 49 47 61 76 79 81 81 93 96
173 186 194 191 193 190 183 183 176 177 187 182 189 188 184 181 185 182 173 177 181 181 180 182 184 183 173 184 186 178 195 197 207 207 206 208 207 210 210 196 213 210 187 200 181 176 193 205 191 174 178 177 167 155 176 162 142 115 54 353 57 271 263 33 345 65 29 101 348 336 5 19 55 55 47 44 55 56 62 72 71 82 90 85 87
184 190 188 188 186 183 182 184 186 187 184 186 187 181 184 187 187 181 182 181 185 182 180 187 182 175 175 164 176 170 197 200 200 198 190 199 197 203 204 188 196 227 206 185 183 179 196 217 203 180 174 163 137 147 146 160 174 136 152 236 292 279 277 328 28 288 127 80 73 72 351 7 332 17 25 39 37 58 64 66 70 77 84 90 100
196 187 188 188 183 181 182 186 188 184 183 184 182 187 186 190 187 186 185 183 183 188 188 184 174 158 156 146 161 167 172 182 202 205 196 183 206 194 200 198 186 207 219 200 192 188 191 216 218 191 189 177 157 159 181 184 218 173 105 214 167 295 345 313 61 34 126 140 323 328 243 107 18 327 347 15 19 52 52 61 70 78 86 96 100
200 191 185 182 182 185 187 188 181 184 185 186 185 186 191 191 190 187 184 185 185 186 184 167 150 140 138 107 125 138 94 151 175 218 206 203 194 179 208 194 195 197 205 210 206 199 195 209 208 208 183 160 156 165 184 196 211 183 162 177 200 179 241 297 338 81 69 171 141 122 5 15 213 251 33 338 17 39 32 48 63 79 90 114 117
196 193 186 183 186 186 186 181 185 189 190 191 189 189 188 188 184 184 183 182 186 185 174 166 172 164 159 159 162 172 191 178 193 202 197 196 205 197 187 189 193 197 196 202 219 188 198 204 206 194 184 162 166 183 190 189 237 241 196 196 214 219 181 138 300 22 53 139 175 223 182 175 182 232 44 281 0 58 30 49 63 86 115 125 124
204 199 186 179 183 181 185 186 189 191 196 188 187 189 188 184 183 183 185 186 182 177 172 170 172 177 182 185 184 183 188 208 193 191 187 204 203 195 198 186 192 195 197 198 208 207 201 201 201 200 183 172 164 149 185 218 248 257 174 177 214 160 132 142 206 248 352 346 331 126 95 88 142 134 217 77 326 316 14 359 50 77 113 124 132
190 194 190 186 182 183 187 192 190 195 187 181 187 186 186 185 181 184 185 184 182 172 175 177 180 181 186 192 189 189 194 199 187 187 184 184 187 206 192 195 191 195 198 198 198 203 197 207 198 192 184 186 176 177 203 220 262 285 169 202 186 169 165 162 202 176 173 238 353 13 49 69 19 338 157 171 170 203 253 322 76 43 89 97 138
188 187 188 188 188 190 191 191 196 186 179 185 187 188 188 185 181 178 183 182 178 175 177 182 184 183 187 188 194 199 192 189 179 178 178 183 191 202 192 197 191 199 198 194 195 198 203 198 186 193 195 192 191 180 201 201 224 220 199 188 187 188 182 149 136 182 181 207 203 274 58 56 37 353 127 88 151 169 261 235 224 37 80 99 136
195 190 187 189 191 193 193 191 184 186 186 186 186 182 184 180 178 179 185 184 179 179 180 183 185 179 184 191 196 195 184 175 172 183 184 177 191 199 198 192 191 194 202 196 197 199 206 191 177 193 203 195 202 192 187 186 201 211 226 220 202 193 216 154 193 177 191 207 212 145 96 96 48 39 34 84 53 54 234 227 206 189 198 145 140
190 192 192 191 191 193 185 183 189 183 181 180 181 183 181 181 182 184 189 182 178 180 179 183 185 184 190 191 195 194 184 174 175 190 179 178 190 198 193 199 188 199 194 197 195 194 200 193 186 196 198 202 210 193 198 197 191 205 211 201 197 197 207 203 253 184 188 193 190 177 168 194 195 193 206 214 187 171 164 257 216 195 240 152 173
187 186 191 188 179 183 183 191 182 182 176 180 184 180 181 183 182 188 185 184 182 181 180 184 185 190 194 192 196 196 183 183 187 190 187 188 189 194 199 187 197 199 198 193 193 195 195 197 196 189 196 203 219 207 202 194 188 174 186 195 215 228 233 208 218 224 209 216 225 205 214 193 190 210 226 178 186 208 192 211 164 142 126 127 125
182 187 185 183 178 173 182 190 181 178 184 184 184 182 182 182 184 184 190 187 182 177 183 184 188 193 194 194 199 193 189 189 190 189 187 188 188 190 183 196 191 195 202 197 198 190 191 195 193 189 201 207 217 208 209 194 182 184 191 199 191 208 218 213 216 225 212 213 235 214 207 192 220 232 211 193 149 139 160 126 180 130 181 194 196
187 185 186 184 182 181 183 183 184 188 189 187 185 176 177 183 188 189 172 66 44 30 1 331 232 207 198 198 197 193 194 193 192 190 186 193 186 189 188 192 189 196 195 205 200 187 191 198 195 198 200 204 202 207 209 195 177 185 193 203 213 218 200 216 230 245 228 236 236 241 224 222 246 238 215 170 161 146 173 174 146 94 7 201 215
185 185 186 187 187 182 183 184 187 190 190 188 182 174 181 186 165 95 86 144 169 165 163 174 270 274 232 207 200 196 197 197 198 193 186 188 193 187 196 193 189 198 200 209 200 192 195 193 196 194 195 200 199 199 206 205 198 194 202 216 230 201 213 213 233 235 247 238 225 221 238 234 243 241 203 208 177 196 174 163 153 152 216 208 231
186 188 191 192 189 185 184 185 189 190 190 187 184 180 186 171 134 138 157 176 177 176 181 184 191 201 238 228 208 199 200 199 200 198 193 192 189 193 195 194 199 196 203 200 200 194 196 196 193 200 200 202 199 201 203 202 203 205 221 218 239 207 221 230 238 227 246 250 250 236 228 248 229 232 218 213 203 203 179 165 170 163 178 243 229
186 190 191 194 192 191 189 188 188 188 187 188 185 178 165 146 143 151 171 185 182 184 183 192 196 178 192 226 230 209 201 198 197 196 195 197 194 199 195 196 196 197 196 195 192 198 202 198 197 199 199 204 205 208 203 206 203 203 214 221 232 223 225 240 241 235 242 250 243 234 227 246 239 232 247 238 217 186 190 189 185 185 184 172 185
192 193 192 192 191 192 193 194 190 188 188 183 175 170 167 160 154 160 179 188 188 181 187 186 191 199 173 183 216 225 216 208 205 199 194 191 199 201 204 196 199 194 195 195 193 192 200 202 202 205 201 198 207 205 205 208 200 208 210 218 226 219 232 244 239 236 247 236 248 252 232 248 245 224 235 239 222 206 197 198 202 201 164 194 188
195 202 199 198 196 197 194 196 195 190 179 175 176 168 164 165 169 171 179 186 183 179 187 190 190 197 192 184 197 202 209 213 208 204 191 194 195 194 197 205 202 199 198 199 194 194 192 202 204 203 201 201 203 208 205 210 198 215 214 220 216 209 227 244 242 229 241 231 240 250 235 244 241 244 249 246 228 201 210 203 216 184 196 206 193
197 204 206 201 200 198 196 191 181 177 174 177 173 168 171 173 174 179 175 174 177 175 176 189 195 198 204 193 189 193 194 197 200 195 192 198 197 191 194 194 203 197 200 196 195 197 196 196 200 202 203 203 202 208 205 209 204 214 218 218 212 201 219 234 248 231 240 230 231 240 239 236 238 242 258 252 237 223 209 210 203 195 206 202 166
201 202 207 206 202 196 193 190 184 172 170 166 170 177 177 172 172 164 159 164 186 189 179 187 189 203 202 200 192 190 198 193 190 194 199 200 197 194 194 192 178 202 197 194 197 202 200 200 200 204 206 206 210 213 211 209 208 219 219 224 223 205 218 233 235 250 237 238 234 239 243 239 212 238 241 243 239 227 213 215 206 200 205 186 181
209 209 207 208 191 172 163 148 138 150 161 172 176 165 172 179 167 159 164 181 186 187 186 183 190 196 202 206 203 193 197 202 195 191 198 201 198 196 193 191 195 198 192 198 199 198 200 202 203 206 208 208 210 214 210 200 207 219 226 218 225 216 223 235 231 246 242 233 237 240 248 244 208 229 241 243 233 226 211 209 202 202 209 203 202
225 222 212 188 159 155 159 162 165 169 171 172 171 179 179 168 149 168 170 187 190 193 187 189 188 187 196 200 201 202 195 201 204 199 199 203 206 199 190 197 202 201 197 199 198 202 203 204 209 211 211 209 209 209 210 206 211 213 221 224 222 218 221 229 228 235 239 234 238 240 249 247 219 232 237 238 234 233 218 212 211 201 212 213 199
143 133 107 108 120 127 134 145 155 162 170 178 179 157 115 120 135 145 172 137 157 264 237 199 190 188 185 190 198 206 205 205 208 210 205 204 205 205 194 199 201 203 203 205 202 200 201 203 207 212 208 213 211 211 208 203 209 211 218 226 222 220 223 225 230 235 233 225 231 242 249 244 235 238 247 242 233 236 229 220 222 208 212 218 195
113 120 120 113 119 135 147 152 164 171 172 156 121 115 122 127 137 145 118 181 184 182 260 238 197 190 186 190 199 203 215 215 214 211 212 206 209 204 199 200 197 201 206 206 211 206 203 199 203 206 210 210 213 210 213 209 208 212 219 226 231 227 226 228 231 236 236 230 229 231 243 240 220 234 247 242 234 230 231 227 232 214 214 215 192
113 109 103 111 118 116 127 147 159 167 150 119 115 124 127 129 135 142 172 178 141 156 207 242 204 195 203 203 207 208 217 219 219 219 217 210 207 202 197 195 194 201 203 205 208 205 204 203 202 206 209 212 214 213 213 215 209 211 216 224 233 234 232 230 232 235 234 231 229 234 238 233 217 218 237 238 229 229 224 222 228 226 220 200 200
88 99 102 105 116 126 135 139 145 137 120 122 128 131 131 132 145 170 181 169 153 160 196 214 207 207 211 214 212 215 221 235 245 234 219 216 212 208 202 200 193 200 202 204 204 205 210 203 204 203 207 211 215 215 217 216 220 221 222 224 229 232 236 234 232 234 233 232 234 235 238 233 229 224 231 234 228 221 214 223 219 224 212 199 201
85 107 131 139 133 128 134 141 139 134 123 124 133 141 144 150 171 177 172 163 169 182 192 199 203 218 223 223 220 222 124 273 245 251 243 226 223 219 230 239 214 210 206 211 209 203 203 203 202 203 208 208 210 218 220 223 224 224 224 228 229 234 236 239 242 240 237 237 235 236 238 237 233 233 232 236 225 226 213 221 225 213 201 195 205
139 150 157 155 160 152 145 142 139 134 132 130 132 133 138 164 192 172 156 165 165 180 196 200 206 220 233 234 224 217 176 209 233 243 247 291 348 9 23 19 352 316 290 252 219 215 201 201 202 203 201 204 205 214 215 215 218 222 219 226 232 234 241 249 250 250 248 244 242 238 238 238 233 235 232 231 226 217 213 222 229 208 208 203 205
176 182 186 184 161 145 142 138 139 147 141 135 135 138 149 163 190 194 145 137 146 177 179 185 197 208 229 234 240 228 208 221 245 30 39 61 81 136 182 189 205 199 211 294 285 253 217 202 196 196 198 198 210 204 221 226 232 241 237 283 326 315 314 312 302 292 278 263 250 245 242 240 240 239 241 239 235 223 216 216 225 208 207 207 200
189 184 188 166 136 124 130 136 145 150 150 138 127 126 130 135 148 152 150 132 133 152 169 172 188 193 199 204 206 220 193 153 131 176 183 134 172 214 75 109 162 186 236 241 292 306 302 280 208 185 187 186 185 193 175 150 155 175 168 157 144 124 140 174 225 264 274 277 273 262 260 258 253 250 247 245 243 235 222 221 221 207 202 197 198
190 173 152 160 151 151 160 161 156 152 143 131 127 132 137 141 141 147 150 152 156 165 172 177 190 190 191 194 198 209 115 126 128 115 122 153 181 183 176 180 184 187 177 164 212 232 237 241 241 224 209 204 196 183 176 182 158 89 79 130 141 166 189 218 228 236 249 256 260 260 251 245 250 251 254 257 255 252 243 230 229 218 202 208 206
173 166 175 179 182 181 172 157 154 155 158 136 130 131 132 141 148 157 154 154 151 146 143 151 172 169 185 161 128 149 138 114 117 113 125 147 198 178 185 199 203 186 169 200 218 221 227 223 220 221 224 218 222 199 200 182 80 123 151 160 185 188 202 222 227 233 243 250 254 259 265 257 252 247 249 249 248 253 254 253 247 242 234 227 225
153 168 169 175 170 171 165 163 162 156 132 119 116 129 152 160 152 145 136 129 125 124 133 147 162 186 175 134 143 177 179 134 90 101 114 153 203 226 218 205 207 210 214 221 234 234 229 226 218 214 218 220 221 231 140 95 131 148 164 177 198 200 206 214 220 222 223 231 235 242 250 257 251 242 239 238 239 241 245 247 251 235 223 233 230
168 167 168 172 178 160 146 152 155 146 139 132 140 161 155 146 123 105 106 123 128 129 134 148 161 165 121 162 208 219 187 103 144 148 134 148 193 235 247 238 208 235 238 237 210 204 226 230 236 234 238 241 225 118 115 136 144 165 181 191 209 215 221 228 234 241 241 240 241 242 242 245 248 245 241 238 240 240 230 200 219 222 202 217 221
184 177 174 169 173 174 176 170 141 126 129 143 168 177 152 111 102 119 118 103 97 99 119 127 177 152 120 186 213 195 154 153 174 203 201 176 176 183 183 171 218 263 263 254 241 226 229 229 225 234 250 269 299 114 125 127 169 185 194 205 219 227 230 234 233 233 236 243 244 239 237 241 245 248 250 245 244 247 204 217 232 239 232 227 229
137 163 177 174 160 158 155 127 117 113 120 150 180 178 117 107 110 114 119 117 119 128 150 206 210 128 165 195 190 167 149 157 168 182 206 241 209 167 183 185 219 225 228 231 241 241 243 234 229 237 244 257 269 200 159 179 218 229 216 233 220 236 250 243 245 238 236 238 242 239 236 245 248 249 248 243 245 233 112 296 246 240 238 239 243
122 116 135 144 132 119 121 122 116 103 119 151 178 175 128 126 136 143 143 144 150 157 193 217 215 173 185 190 174 159 172 189 190 222 226 217 220 219 208 200 217 225 234 243 250 262 264 257 256 250 226 238 248 230 183 178 211 232 230 222 223 234 244 251 257 254 244 244 246 247 244 245 248 253 245 241 243 193 178 210 234 237 240 245 249
148 151 148 149 140 137 129 122 120 117 132 152 167 163 127 127 134 138 138 144 159 169 213 230 221 182 180 165 141 135 142 147 253 247 253 265 249 248 238 181 206 209 229 233 249 257 272 274 263 254 247 247 249 221 193 175 202 221 232 247 250 253 258 261 270 275 278 276 276 278 274 268 269 272 272 258 252 222 213 209 217 223 232 237 238
126 104 131 138 141 128 132 141 143 140 145 147 153 149 139 123 118 134 144 153 169 182 212 248 234 141 177 150 142 211 228 221 230 228 228 237 255 265 242 190 204 206 220 224 227 234 243 252 245 240 242 249 250 260 240 169 191 213 224 230 235 240 244 248 249 255 269 264 262 266 271 261 257 265 278 289 287 248 238 226 212 218 231 247 236
143 136 137 142 155 158 160 162 137 122 118 119 118 106 93 119 137 147 156 184 183 153 202 264 273 141 126 109 134 162 242 262 256 261 279 265 245 240 234 228 233 225 220 224 221 221 225 239 239 233 233 231 225 225 216 189 196 204 216 219 231 232 245 255 267 279 282 291 295 288 287 6 22 14 358 332 313 296 262 250 242 238 236 255 270
113 142 144 148 139 115 98 77 76 100 110 123 122 121 137 146 139 175 191 168 171 156 188 254 295 322 36 78 11 276 253 252 263 263 295 278 287 276 262 278 285 285 286 293 305 311 304 298 284 230 231 245 247 232 228 173 183 200 211 208 231 337 26 325 319 317 316 318 334 348 345 6 351 341 328 319 312 308 295 271 255 253 265 278 277
138 150 175 146 123 101 99 118 132 141 150 155 145 146 156 159 169 192 165 141 146 147 163 188 224 255 274 262 221 210 213 218 222 210 213 240 293 291 293 283 207 203 195 239 271 287 332 327 328 332 347 353 5 343 52 104 68 51 28 18 22 25 23 48 16 334 338 330 334 335 334 340 332 323 319 311 303 301 294 269 263 269 276 280 288
163 165 159 129 110 115 126 142 155 160 164 164 155 151 157 159 175 163 143 137 137 143 149 164 188 212 224 231 229 214 200 182 170 164 165 164 167 166 153 153 156 163 131 256 243 220 211 254 290 316 344 23 32 76 79 105 101 90 84 56 36 36 12 38 22 353 335 334 328 325 321 320 315 312 313 314 313 306 297 298 298 287 272 268 254
162 166 144 135 136 139 141 149 168 170 172 171 160 151 159 159 166 145 146 142 144 147 153 162 175 189 198 209 220 222 218 205 172 160 164 168 167 160 165 201 138 80 92 315 299 327 333 311 321 342 326 354 6 65 94 108 121 125 117 100 55 23 76 26 11 346 347 326 309 297 298 310 317 322 320 318 317 318 329 324 313 303 296 279 262
129 123 135 140 138 135 141 152 181 186 175 172 166 145 148 158 141 150 146 152 148 149 152 158 167 167 176 177 190 248 291 309 293 290 239 200 187 181 183 185 163 154 147 144 292 310 321 332 329 329 334 344 335 336 355 19 17 22 67 100 81 42 49 24 335 7 347 305 290 282 285 301 306 321 331 336 340 341 335 337 342 344 331 308 293
141 142 136 139 139 140 151 158 166 194 181 183 176 195 157 146 158 156 160 157 150 150 151 154 171 166 166 178 173 186 219 357 4 20 1 320 250 208 205 184 166 188 188 206 221 260 287 290 293 290 294 326 318 323 333 341 350 348 353 357 355 7 358 347 358 339 334 332 328 332 327 307 290 292 315 347 346 351 351 348 343 341 330 320 299
122 132 140 144 151 155 156 152 166 183 192 183 189 188 167 161 149 152 144 148 148 152 147 147 143 143 146 168 164 163 140 69 33 20 13 9 357 318 219 199 205 205 212 236 242 258 256 260 273 278 284 333 296 339 7 5 354 358 348 342 337 341 350 354 326 325 332 330 330 327 325 338 345 354 7 14 15 9 0 348 343 341 338 330 323
133 142 155 159 162 155 150 147 162 183 188 184 186 187 158 156 143 126 139 140 135 129 119 119 118 109 74 89 90 119 142 140 103 38 38 27 346 336 0 5 23 18 12 345 327 333 354 360 328 305 286 291 251 37 52 27 351 355 333 320 333 341 348 325 342 359 329 333 341 355 350 350 1 4 8 8 6 357 351 350 358 359 352 351 350
137 147 164 158 147 130 136 146 168 178 165 167 181 177 108 82 91 125 132 136 125 114 118 119 121 118 124 107 93 93 111 134 140 144 124 63 57 53 15 353 0 49 55 61 67 66 25 350 335 313 298 292 290 307 5 2 348 347 343 302 275 288 315 6 8 341 333 332 346 342 357 354 356 6 8 8 1 352 348 348 356 3 9 7 8
143 143 157 132 105 121 132 143 143 93 105 115 121 54 55 30 60 81 127 130 129 131 130 134 128 139 144 137 140 131 130 135 153 155 155 150 301 6 36 41 19 12 17 33 80 97 72 38 314 297 325 334 327 339 350 344 340 338 343 352 4 19 50 37 21 4 343 356 347 343 352 350 355 359 5 2 357 353 350 347 345 357 11 13 14